New Melones Lake Weather Center

Moon Phase Calendar



New Melones Lake Water Level
Online Cameras

 


      

Current Conditions in City of Angels
6/14/2021 4:27:22 PM

85°F
Feels Like 84
Clear
Humidity
34%
Pressure
30.03"
Wind
4.6 mph (SSW)
Dew Point
54°F
UV Index
5/10 (Moderate)
Visibility
6 mi

Hourly Forecast

Date & Time Mon, Jun 14
4:00 PM
Mon, Jun 14
5:00 PM
Mon, Jun 14
6:00 PM
Mon, Jun 14
7:00 PM
Mon, Jun 14
8:00 PM
Mon, Jun 14
9:00 PM
Mon, Jun 14
10:00 PM
Mon, Jun 14
11:00 PM
Tue, Jun 15
12:00 AM
Tue, Jun 15
1:00 AM
Tue, Jun 15
2:00 AM
Tue, Jun 15
3:00 AM
Tue, Jun 15
4:00 AM
Tue, Jun 15
5:00 AM
Tue, Jun 15
6:00 AM
Tue, Jun 15
7:00 AM
Tue, Jun 15
8:00 AM
Tue, Jun 15
9:00 AM
Tue, Jun 15
10:00 AM
Tue, Jun 15
11:00 AM
Tue, Jun 15
12:00 PM
Tue, Jun 15
1:00 PM
Tue, Jun 15
2:00 PM
Tue, Jun 15
3:00 PM
Tue, Jun 15
4:00 PM
Tue, Jun 15
5:00 PM
Tue, Jun 15
6:00 PM
Tue, Jun 15
7:00 PM
Tue, Jun 15
8:00 PM
Tue, Jun 15
9:00 PM
Tue, Jun 15
10:00 PM
Tue, Jun 15
11:00 PM
Wed, Jun 16
12:00 AM
Wed, Jun 16
1:00 AM
Wed, Jun 16
2:00 AM
Wed, Jun 16
3:00 AM
Wed, Jun 16
4:00 AM
Wed, Jun 16
5:00 AM
Wed, Jun 16
6:00 AM
Wed, Jun 16
7:00 AM
Wed, Jun 16
8:00 AM
Wed, Jun 16
9:00 AM
Wed, Jun 16
10:00 AM
Wed, Jun 16
11:00 AM
Wed, Jun 16
12:00 PM
Wed, Jun 16
1:00 PM
Wed, Jun 16
2:00 PM
Wed, Jun 16
3:00 PM
Condition
Clear

Clear

Clear

Clear

Clear

Clear

Clear

Clear

Clear

Clear

Clear

Clear

Clear

Clear

Clear

Clear

Clear

Clear

Clear

Clear

Clear

Clear

Clear

Clear

Clear

Clear

Clear

Clear

Clear

Clear

Clear

Clear

Clouds

Clouds

Clouds

Clouds

Clouds

Clouds

Clouds

Clouds

Clouds

Clouds

Clouds

Clouds

Clouds

Clouds

Clouds

Clouds
Temperature 85°F86°F84°F81°F75°F65°F61°F59°F58°F57°F56°F56°F55°F55°F55°F60°F65°F71°F76°F80°F83°F86°F89°F90°F90°F89°F88°F85°F78°F70°F67°F65°F64°F64°F64°F64°F64°F63°F64°F69°F78°F82°F86°F91°F94°F97°F99°F100°F
Feels Like 84°F84°F82°F80°F73°F63°F59°F57°F56°F55°F54°F54°F53°F53°F53°F58°F64°F69°F74°F79°F81°F83°F85°F86°F86°F86°F84°F82°F76°F67°F64°F62°F61°F61°F62°F61°F61°F61°F61°F67°F76°F80°F83°F86°F89°F92°F93°F94°F
Cloudiness 1%1%1%0%0%0%0%0%0%0%0%0%0%0%0%0%0%0%0%1%5%2%2%1%1%1%0%0%0%0%0%0%73%86%91%93%95%95%99%78%67%74%79%82%56%49%62%71%
Visibility 6 mi6 mi6 mi6 mi6 mi6 mi6 mi6 mi6 mi6 mi6 mi6 mi6 mi6 mi6 mi6 mi6 mi6 mi6 mi6 mi6 mi6 mi6 mi6 mi6 mi6 mi6 mi6 mi6 mi6 mi6 mi6 mi6 mi6 mi6 mi6 mi6 mi6 mi6 mi6 mi6 mi6 mi6 mi6 mi6 mi6 mi6 mi6 mi
Precipitation 0%0%0%0%0%0%0%0%0%0%0%0%0%0%0%0%0%0%0%0%0%0%0%0%0%0%0%0%0%0%0%0%0%0%0%0%0%0%0%0%0%0%0%0%0%0%0%0%
Humidity 34%32%32%31%31%36%42%46%50%54%57%60%62%64%65%55%42%32%25%19%16%13%11%10%9%9%9%11%15%19%22%24%26%27%28%29%30%30%30%28%20%17%14%12%11%10%9%8%
Dew Point 54°F52°F51°F48°F42°F37°F37°F38°F39°F40°F41°F41°F42°F43°F42°F43°F41°F39°F37°F34°F32°F30°F27°F25°F23°F22°F22°F24°F26°F26°F26°F27°F28°F29°F30°F31°F31°F31°F31°F35°F33°F32°F31°F31°F31°F30°F29°F28°F
Pressure 30.03"30"30"29.97"30"30.03"30.06"30.06"30.06"30.06"30.06"30.06"30.06"30.06"30.06"30.09"30.09"30.09"30.06"30.06"30.03"30.03"30"29.97"29.97"29.97"29.94"29.94"29.97"29.97"30"29.97"29.97"29.97"29.94"29.94"29.94"29.94"29.94"29.94"29.94"29.94"29.91"29.91"29.91"29.88"29.85"29.85"
Wind Speed 9.5 mph11.9 mph13.7 mph13.1 mph10.8 mph6.9 mph6.8 mph5.9 mph5.5 mph5.5 mph5 mph5 mph4.6 mph4.6 mph4.7 mph4.4 mph4.8 mph5 mph6.4 mph7.5 mph9.4 mph10 mph10.2 mph11 mph11 mph10.7 mph10.7 mph10.3 mph6.7 mph6.2 mph6.2 mph5.8 mph5.5 mph4.2 mph3.9 mph3.8 mph3.8 mph4.1 mph3.2 mph2.4 mph2.6 mph4.1 mph4.9 mph5.9 mph7 mph7.4 mph7.9 mph7.5 mph
Wind
Direction
269°
W
269°
W
274°
W
289°
WNW
315°
NW
331°
NNW
342°
NNW

N
358°
N
348°
NNW
355°
N
356°
N

N
345°
NNW
348°
NNW
328°
NNW
299°
WNW
287°
WNW
280°
W
283°
WNW
288°
WNW
291°
WNW
290°
WNW
294°
WNW
299°
WNW
305°
NW
308°
NW
311°
NW
320°
NW

N
18°
NNE
18°
NNE
15°
NNE
23°
NNE
30°
NNE
29°
NNE
26°
NNE
22°
NNE
34°
NE
27°
NNE
282°
WNW
270°
W
270°
W
267°
W
263°
W
264°
W
270°
W
270°
W

Daily Forecast

Date High Low Precip. Humidity
Today
Jun 14

Clear
86 °F
57 °F
0%
35%
Tuesday
Jun 15

Clear
90 °F
55 °F
0%
13%
Wednesday
Jun 16

Clouds
100 °F
63 °F
0%
9%
Thursday
Jun 17

Clouds
108 °F
72 °F
0%
5%
Friday
Jun 18

Clear
108 °F
75 °F
0%
7%
Saturday
Jun 19

Clear
106 °F
72 °F
0%
8%
Sunday
Jun 20

Clear
101 °F
67 °F
0%
10%
Monday
Jun 21

Clear
94 °F
61 °F
0%
20%
Tuesday
Jun 22

Clear
92 °F
60 °F
0%
23%
Wednesday
Jun 23

Clear
89 °F
60 °F
0%
28%
Thursday
Jun 24

Clear
88 °F
54 °F
15%
29%
Friday
Jun 25

Clouds
91 °F
60 °F
0%
24%
Saturday
Jun 26

Clear
104 °F
66 °F
0%
15%
Sunday
Jun 27

Clear
110 °F
72 °F
0%
12%
Monday
Jun 28

Clear
114 °F
77 °F
0%
10%
Tuesday
Jun 29

Clear
110 °F
76 °F
0%
9%

Temperature 8-14 Day Outlook



Precipitation 8-14 Day Outlook




Quick Links
New Melones Lake News
New Melones Lake Photos
New Melones Lake Videos




About Us
Contact Us
Site Map
Search Site
Advertise With Us
   
NewMelones.LakesOnline.com
THE NEW MELONES LAKE WEBSITE

Copyright 2021, Lakes Online
Privacy    |    Legal